New Bedford, MA

5:41 AM EDT on September 17, 2019 (GMT -0400)
New Bedford Regional

Weather History for KEWB - August, 2019

Change the Weather History Date:

Sunday, August 25, 2019

  Actual Average Record
Temperature  
Mean Temperature 62 °F -  
Max Temperature 70 °F 78 °F 96 °F (1969)
Min Temperature 55 °F 63 °F 45 °F (2004)
Degree Days  
Heating Degree Days 3    
Growing Degree Days 12 (Base 50)    
Moisture  
Dew Point 56 °F    
Average Humidity 79    
Maximum Humidity 93    
Minimum Humidity 59    
Precipitation  
Precipitation 0.00 in - - ()
Sea Level Pressure  
Sea Level Pressure 30.26 in    
Wind  
Wind Speed 6 mph ()    
Max Wind Speed 18 mph    
Max Gust Speed 28 mph    
Visibility 9.9 miles    
Events Rain    
Averages and records for this station are not official NWS values.
T = Trace of Precipitation, MM = Missing Value Source: Averaged Metar Reports

Daily Weather History Graph

Daily Weather History Graph

Search for Another Location

Airport or City:

Astronomy

Aug. 25, 2019 Rise Set
Actual Time 6:02 AM EDT 7:28 PM EDT
Civil Twilight 5:33 AM EDT 7:57 PM EDT
Nautical Twilight 4:58 AM EDT 8:32 PM EDT
Astronomical Twilight 4:21 AM EDT 9:09 PM EDT
Moon 12:32 AM EDT (8/25) 3:49 PM EDT (8/25)
Length of Visible Light 14h 24m
Length of Day
13h 26m
Waning Crescent, 29% of the Moon is Illuminated
Aug 25
Waning Crescent
Aug 30
New
Sep 5
First Quarter
Sep 14
Full
Sep 21
Last Quarter

Hourly Weather History & Observations

Time (EDT) Temp. Dew Point Humidity Pressure Visibility Wind Dir Wind Speed Gust Speed Precip Events Conditions
12:53 AM 57.0 °F 54.0 °F 89% 30.27 in 10.0 mi Calm Calm - N/A   Clear
1:53 AM 57.0 °F 54.0 °F 89% 30.26 in 10.0 mi NNW 3.5 mph - N/A   Clear
2:53 AM 55.9 °F 53.1 °F 90% 30.25 in 10.0 mi Calm Calm - N/A   Clear
3:53 AM 55.9 °F 53.1 °F 90% 30.25 in 10.0 mi NNW 4.6 mph - N/A   Clear
4:53 AM 55.9 °F 53.1 °F 90% 30.25 in 10.0 mi Calm Calm - N/A   Partly Cloudy
5:53 AM 55.9 °F 54.0 °F 93% 30.25 in 10.0 mi North 3.5 mph - N/A   Scattered Clouds
6:53 AM 59.0 °F 55.9 °F 90% 30.26 in 10.0 mi North 4.6 mph - N/A   Partly Cloudy
7:53 AM 64.0 °F 59.0 °F 84% 30.27 in 10.0 mi North 5.8 mph - N/A   Clear
8:53 AM 64.9 °F 60.1 °F 84% 30.27 in 5.0 mi NNE 9.2 mph - 0.00 in Rain Light Rain
9:43 AM 64.9 °F 60.1 °F 84% 30.28 in 10.0 mi North 6.9 mph - 0.00 in   Overcast
9:53 AM 66.0 °F 60.1 °F 81% 30.28 in 10.0 mi NNE 5.8 mph 19.6 mph 0.00 in   Overcast
10:51 AM 66.2 °F 60.8 °F 83% 30.28 in 10.0 mi NNE 11.5 mph 17.3 mph 0.00 in Rain Light Rain
10:53 AM 66.0 °F 60.1 °F 81% 30.28 in 10.0 mi NNE 10.4 mph 17.3 mph 0.00 in Rain Light Rain
11:53 AM 68.0 °F 57.9 °F 70% 30.29 in 10.0 mi NE 18.4 mph 25.3 mph 0.00 in   Overcast
12:53 PM 69.1 °F 57.0 °F 65% 30.29 in 10.0 mi NNE 13.8 mph 27.6 mph 0.00 in   Overcast
1:53 PM 68.0 °F 55.9 °F 65% 30.28 in 10.0 mi NE 12.7 mph 24.2 mph N/A   Overcast
2:53 PM 69.1 °F 55.9 °F 63% 30.28 in 10.0 mi NNE 13.8 mph 25.3 mph N/A   Overcast
3:39 PM 68.0 °F 54.0 °F 61% 30.27 in 10.0 mi NE 15.0 mph 21.9 mph N/A   Mostly Cloudy
3:53 PM 68.0 °F 53.1 °F 59% 30.27 in 10.0 mi NNE 13.8 mph 23.0 mph N/A   Mostly Cloudy
4:00 PM 66.9 °F 53.1 °F 61% 30.27 in 10.0 mi NNE 11.5 mph 20.7 mph N/A   Partly Cloudy
4:53 PM 66.0 °F 53.1 °F 63% 30.27 in 10.0 mi NNE 8.1 mph 17.3 mph N/A   Overcast
5:53 PM 66.0 °F 55.0 °F 68% 30.26 in 10.0 mi NNE 10.4 mph - N/A   Partly Cloudy
6:14 PM 64.9 °F 55.0 °F 70% 30.26 in 10.0 mi NNE 10.4 mph - N/A   Mostly Cloudy
6:53 PM 63.0 °F 55.0 °F 75% 30.26 in 10.0 mi NNE 8.1 mph - N/A   Overcast
7:53 PM 63.0 °F 55.0 °F 75% 30.26 in 10.0 mi North 5.8 mph - N/A   Overcast
8:31 PM 62.1 °F 55.9 °F 80% 30.27 in 10.0 mi NNE 5.8 mph - 0.00 in Rain Light Rain
8:53 PM 63.0 °F 55.9 °F 78% 30.26 in 10.0 mi NNE 5.8 mph - 0.00 in   Overcast
9:14 PM 62.1 °F 55.9 °F 80% 30.26 in 10.0 mi NNE 6.9 mph - N/A   Overcast
9:22 PM 62.1 °F 57.0 °F 84% 30.26 in 10.0 mi North 6.9 mph - 0.00 in Rain Light Rain
9:29 PM 62.1 °F 57.0 °F 84% 30.26 in 10.0 mi NNE 5.8 mph - 0.00 in   Overcast
9:36 PM 62.1 °F 57.0 °F 84% 30.26 in 10.0 mi NNE 8.1 mph - 0.00 in   Overcast
9:53 PM 62.1 °F 57.0 °F 84% 30.26 in 10.0 mi NNE 6.9 mph - 0.00 in   Overcast
10:12 PM 63.0 °F 57.0 °F 81% 30.25 in 10.0 mi Variable 6.9 mph - N/A   Overcast
10:33 PM 63.0 °F 57.0 °F 81% 30.25 in 10.0 mi North 4.6 mph - N/A   Overcast
10:51 PM 62.6 °F 57.2 °F 82% 30.25 in 10.0 mi North 4.6 mph - N/A   Overcast
10:53 PM 63.0 °F 57.0 °F 81% 30.25 in 10.0 mi North 4.6 mph - N/A   Overcast
11:53 PM 59.0 °F 54.0 °F 83% 30.24 in 10.0 mi NNE 5.8 mph - N/A   Clear